This demonstration page uses our WeatherBlox Daily Observations layout. Learn more.

Left ArrowRight Arrow

34.74481, -87.66753

Hourly Observations for December 1, 2022

Temp ( °F °C ) Dew Point ( °F °C ) Humidity (%) Winds ( mph kmh ) Pressure ( in mb ) Visibility ( mi km ) Precip ( " mm )
12:53 am 00:53 Clear 36 2.2 22 -5.6 56 56 N 6 9 30.46 1032 10 16 0.00 0.00
1:53 am 01:53 Clear 35 1.7 22 -5.6 58 58 N 6 9 30.45 1031 10 16 0.00 0.00
2:53 am 02:53 Clear 35 1.7 22 -5.6 58 58 N 3 6 30.46 1031 10 16 0.00 0.00
3:53 am 03:53 Clear 31 -0.6 23 -5 72 72 Calm 30.47 1032 10 16 0.00 0.00
4:53 am 04:53 Clear 31 -0.6 23 -5 72 72 NNW 3 6 30.49 1033 10 16 0.00 0.00
5:53 am 05:53 Clear 32 0 23 -5 69 69 Calm 30.51 1033 10 16 0.00 0.00
6:53 am 06:53 Sunny 30 -1.1 23 -5 75 75 ENE 5 7 30.51 1033 10 16 0.00 0.00
7:53 am 07:53 Sunny 36 2.2 22 -5.6 56 56 ENE 8 13 30.52 1034 10 16 0.00 0.00
8:53 am 08:53 Sunny 38 3.3 22 -5.6 52 52 ENE 10 17 30.53 1034 10 16 0.00 0.00
9:53 am 09:53 Sunny 42 5.6 21 -6.1 43 43 E 13 20 30.52 1033 10 16 0.00 0.00
10:53 am 10:53 Sunny 44 6.7 21 -6.1 39 39 E 8 13 30.52 1033 10 16 0.00 0.00
11:53 am 11:53 Sunny 46 7.8 21 -6.1 37 37 ENE 8 13 30.49 1033 10 16 0.00 0.00
12:53 pm 12:53 Sunny 47 8.3 22 -5.6 37 37 ESE 6 9 30.47 1032 10 16 0.00 0.00
1:53 pm 13:53 Sunny 49 9.4 21 -6.1 33 33 SE 6 9 30.45 1031 10 16 0.00 0.00
2:53 pm 14:53 Sunny 50 10 20 -6.7 30 30 ENE 6 9 30.42 1030 10 16 0.00 0.00
3:53 pm 15:53 Sunny 49 9.4 21 -6.1 33 33 E 7 11 30.41 1030 10 16 0.00 0.00
4:53 pm 16:53 Clear 44 6.7 26 -3.3 49 49 Calm 30.41 1030 10 16 0.00 0.00
5:53 pm 17:53 Clear 42 5.6 25 -3.9 50 50 Calm 30.40 1029 10 16 0.00 0.00
7:53 pm 19:53 Clear 38 3.3 31 -0.6 76 76 Calm 30.40 1029 10 16 0.00 0.00
8:53 pm 20:53 Clear 35 1.7 29 -1.7 78 78 ESE 3 6 30.37 1029 10 16 0.00 0.00
9:53 pm 21:53 Clear 37 2.8 29 -1.7 72 72 Calm 30.37 1028 10 16 0.00 0.00
10:53 pm 22:53 Clear 36 2.2 29 -1.7 75 75 Calm 30.37 1029 10 16 0.00 0.00
11:53 pm 23:53 Clear 40 4.4 30 -1.1 67 67 Calm 30.37 1029 10 16 0.00 0.00

Powered by AerisWeather